ORSTED (25635 NORAD) Tracking and Keplerian Element Data

This shows tracking and keplerian element data for the satellite.

Feedback or suggestion? Click here.




ElementValue
Catalog25635
NameORSTED
Epoch Orbit2807
Epoch Day230.51527751
Epoch Year2018
RAAN40.8739
Inclination96.4497
Eccentricity0.0137806
Argument of Perigee325.0332
Mean Anonmoly34.1873
Mean Motion14.48094071
Decay Rate6.1E-07
L11 25635U 99008B 18230.51527751 .00000061 00000-0 22513-4 0 9998
L22 25635 96.4497 40.8739 0137806 325.0332 34.1873 14.48094071 28077

Live tracking and technical data element details for ORSTED (NORAD 25635). ORSTED can be tracked NOW for your location showing map with azimuth and elevation plus other details from your city location.

Track the satellite on the map from your city or location and see movement details for azimuth, elevation, latitude, longitude, range, height, and movement on the map or in text.







IsCatalogInMostPopularTable: catalog: 25635, numindb: 31
Update: records affected: 1



GetName: 25635 ORSTED

Hit Count: updated at: Mon, 20 Aug 2018 00:42:38 GMT